Regional Weather Roundup
Issued by NWS

Home | Current Version | Previous Version | Graphics & Text | Print | Product List | Glossary Off
Versions: 1 2 3 4 5 6 7 8 9 10 11 12 13 14 15 16 17 18 19 20 21 22 23 24 25 26 27 28 29 30 31 32 33 34 35 36 37 38 39 40 41 42 43 44 45 46 47 48 49 50

000
ASUS43 KLSX 270210
RWRMO

WEATHER SUMMARY FOR MISSOURI
NATIONAL WEATHER SERVICE SPRINGFIELD MO
900 PM CDT FRI AUG 26 2016

NOTE: "FAIR" INDICATES FEW OR NO CLOUDS BELOW 12,000 FEET WITH NO
       SIGNIFICANT WEATHER AND/OR OBSTRUCTIONS TO VISIBILITY.
       CURRENT SKY AND/OR WEATHER CONDITIONS ARE NOT AVAILABLE FOR
       CHILLICOTHE AND FARMINGTON.

MOZ001>031-035>038-043-044-053-054-270300-
...NORTHERN AND WESTERN MISSOURI...

CITY           SKY/WX    TMP DP  RH WIND       PRES   REMARKS
KANSAS CTY INT LGT RAIN  70  69  97 E7        30.01S
KANSAS C DTWN  TSTM      71  69  93 SE7G22    30.01R VSB 3/4
LEE`S SUMMIT   CLOUDY    78  71  79 E5        30.01R
ST JOSEPH      CLOUDY    69  68  96 NW3       30.02R FOG
CHILLICOTHE      N/A     75  71  87 E8        30.01F
KIRKSVILLE     PTCLDY    73  71  93 E10       30.05F

$$
MOZ066>068-077>081-088>096-101>105-270300-
...SOUTHWEST MISSOURI...

CITY           SKY/WX    TMP DP  RH WIND       PRES   REMARKS
SPRINGFIELD    CLOUDY    77  71  82 SE7       30.04F
JOPLIN         PTCLDY    75  70  84 S7        30.02F
BRANSON        CLOUDY    75  73  94 CALM      30.09R

$$
MOZ032>034-039>042-045>050-055>058-069>072-270300-
...CENTRAL MISSOURI...

CITY           SKY/WX    TMP DP  RH WIND       PRES   REMARKS
COLUMBIA       CLOUDY    76  74  93 E6        30.04S
JEFFERSON CITY CLOUDY    79  74  84 SE6       30.01F
ROLLA          CLOUDY    72  69  90 CALM      30.06R
SEDALIA        CLOUDY    76  72  87 SE8       30.01F
WHITEMAN AFB   MOCLDY    76  76 100 S2        30.00R
OSAGE BEACH    CLOUDY    77  75  93 SE5       30.05S

$$
MOZ051-052-059>065-270300-
...EAST CENTRAL MISSOURI...

CITY           SKY/WX    TMP DP  RH WIND       PRES   REMARKS
ST LOUIS INTL  MOCLDY    84  68  58 S12       30.05S
SPIRIT OF STL  CLOUDY    81  73  76 SE6       30.03S
ST CHARLES     CLOUDY    76  73  91 E7        30.04R

$$
MOZ072>076-082>087-097>100-106>115-270300-
...SOUTH CENTRAL AND SOUTHEAST MISSOURI...

CITY           SKY/WX    TMP DP  RH WIND       PRES   REMARKS
CAPE GIRARDEAU LGT RAIN  75  72  90 E3        30.09R
FARMINGTON     CLOUDY    79  74  84 S9        30.09R
POPLAR BLUFF   CLOUDY    74  71  91 CALM      30.05F
WEST PLAINS    CLOUDY    79  71  76 SE7       30.09S

$$




USA.gov is the U.S. government's official web portal to all federal, state and local government web resources and services.